Погода в Малых Кириллах

Россия / Смоленская область     53°58′30″N   32°53′18″E
темп.,
°C
ветер,
м/с
пор.,
м/с
влажн.,
%
обл.,
%
осадки,
мм/ч
давл.,
гПа
погр.,
м
11 апреля, вс
вс1100:00+4ю412725 0.0 1025243
03:00+3ююз411755 0.0 1026229
06:00+2ююз38815 0.0 1027139
09:00+7ююз36600 0.0 1028255
12:00+12ю45470 0.0 1028799
15:00+14ююз34410 0.0 10281239
18:00+13ю23490 0.0 1028176
21:00+8юв22670 0.0 103034
12 апреля, пн
пн1200:00+7юв22700 0.0 103025
03:00+5вюв23760 0.0 103141
06:00+4в358011 0.0 103079
09:00+8в496190 0.0 1029401
12:00+12в5737100 0.0 1027863
15:00+11вюв4659100 0.0 1026882
18:00+8в2691100 1.9 1025331
21:00+8вюв3890100 2.1 1025196
13 апреля, вт
вт1300:00+8вюв2593100 0.0 1023103
03:00+8вюв1194100 0.0 102214
06:00+8вюв2295100 0.1 102220
09:00+9в3791100 0.1 1022166
12:00+16юв3663100 0.0 1020618
15:00+18ююв5754100 0.0 10191676
18:00+14юв3874100 0.1 1019216
21:00+12юв2583100 0.2 1019108
14 апреля, ср
ср1400:00+11ююв2888100 0.0 1019187
03:00+10ююв289277 0.0 1018209
06:00+9ююв369583 0.0 1018122
09:00+11юв2587100 0.0 1018247
12:00+13ююв2776100 0.1 1018670
15:00+15ююв3566100 0.4 1017813
18:00+13юз0079100 0.2 101615
21:00+11всв118795 0.6 101713
15 апреля, чт
чт1500:00+9ююв1191100 0.0 101711
03:00+9сз0094100 0.1 101610
06:00+9всв1196100 0.6 101611
09:00+12вюв2487100 0.9 1016310
12:00+15вюв3464100 0.7 1015645
15:00+14вюв1271100 2.4 1015102
18:00+12ссз4778100 0.4 1014203
21:00+10ссв71481100 1.1 1015605